Weather History for KHTS - November, 2013

Change the Weather History Date:

Sunday, November 24, 2013

  Actual Average Record
Temperature  
Mean Temperature 24 °F 44 °F  
Max Temperature 30 °F 53 °F 76 °F (1931)
Min Temperature 18 °F 34 °F 9 °F (1950)
Degree Days  
Heating Degree Days 41 21  
Month to date heating degree days 446 413  
Since 1 July heating degree days 749 752  
Cooling Degree Days 0 0  
Month to date cooling degree days 1 0  
Year to date cooling degree days 1215 1132  
Moisture  
Dew Point 8 °F    
Average Humidity 51    
Maximum Humidity 68    
Minimum Humidity 34    
Precipitation  
Precipitation T in 0.11 in 1.00 in (1900)
Month to date precipitation 2.12 2.73  
Year to date precipitation 38.36 38.57  
Snow  
Snow 0.00 in - - ()
Month to date snowfall 1.0  
Since 1 September snowfall 1.0  
Snow Depth 0.00 in    
Sea Level Pressure  
Sea Level Pressure 30.58 in    
Wind  
Wind Speed 6 mph (NNW)    
Max Wind Speed 16 mph    
Max Gust Speed 23 mph    
Visibility 10 miles    
Events Snow    
T = Trace of Precipitation, MM = Missing Value Source: NWS Daily Summary

Daily Weather History Graph

Daily Weather History Graph

Search for Another Location

Airport or City:

Trip Planner

Search our weather history database for the weather conditions in past years. The results will help you decide how hot, cold, wet, or windy it might be!

Date:

Astronomy

Nov. 24, 2013 Rise Set
Actual Time 7:21 AM EST 5:12 PM EST
Civil Twilight 6:52 AM EST 5:40 PM EST
Nautical Twilight 6:20 AM EST 6:13 PM EST
Astronomical Twilight 5:48 AM EST 6:45 PM EST
Moon 11:34 PM EST 12:11 PM EST
Length of Visible Light 10h 48m
Length of Day
9h 50m
Waning Gibbous, 61% of the Moon is Illuminated
Nov 24
Waning Gibbous
Nov 25
Last Quarter
Dec 2
New
Dec 9
First Quarter
Dec 17
Full

Hourly Weather History & Observations

Time (EST) Temp. Windchill Dew Point Humidity Pressure Visibility Wind Dir Wind Speed Gust Speed Precip Events Conditions
12:51 AM 26.1 °F 15.0 °F 15.1 °F 63% 30.48 in 10.0 mi North 12.7 mph - N/A   Overcast
1:51 AM 25.0 °F 14.8 °F 16.0 °F 69% 30.50 in 10.0 mi NNW 10.4 mph - N/A   Mostly Cloudy
2:35 AM 24.8 °F 16.1 °F 15.8 °F 69% 30.50 in 9.0 mi NW 8.1 mph 16.1 mph 0.00 in Snow Light Snow
2:51 AM 23.0 °F 13.9 °F 12.0 °F 63% 30.52 in 10.0 mi NW 8.1 mph 16.1 mph 0.00 in   Mostly Cloudy
3:51 AM 23.0 °F 14.7 °F 10.0 °F 58% 30.53 in 10.0 mi NNW 6.9 mph - N/A   Overcast
4:51 AM 19.9 °F 9.3 °F 5.0 °F 52% 30.56 in 10.0 mi NNW 9.2 mph - N/A   Clear
5:51 AM 19.0 °F 11.1 °F 7.0 °F 59% 30.58 in 10.0 mi NNW 5.8 mph 16.1 mph N/A   Clear
6:51 AM 19.0 °F 11.1 °F 7.0 °F 59% 30.60 in 10.0 mi NW 5.8 mph - N/A   Clear
7:51 AM 19.0 °F 10.0 °F 7.0 °F 59% 30.62 in 10.0 mi NNW 6.9 mph - N/A   Clear
8:51 AM 21.0 °F 11.4 °F 7.0 °F 55% 30.65 in 10.0 mi North 8.1 mph - N/A   Clear
9:51 AM 23.0 °F 13.9 °F 5.0 °F 46% 30.67 in 10.0 mi North 8.1 mph - N/A   Clear
10:51 AM 25.0 °F 17.1 °F 3.9 °F 41% 30.67 in 10.0 mi Variable 6.9 mph - N/A   Clear
11:51 AM 27.0 °F 18.0 °F 6.1 °F 41% 30.64 in 10.0 mi NW 9.2 mph - N/A   Clear
12:51 PM 28.0 °F 22.8 °F 3.9 °F 36% 30.61 in 10.0 mi North 4.6 mph - N/A   Clear
1:51 PM 28.9 °F 20.4 °F 5.0 °F 36% 30.60 in 10.0 mi NW 9.2 mph - N/A   Clear
2:51 PM 28.9 °F 22.8 °F 5.0 °F 36% 30.59 in 10.0 mi NNW 5.8 mph - N/A   Clear
3:51 PM 28.9 °F 21.9 °F 5.0 °F 36% 30.59 in 10.0 mi NNW 6.9 mph - N/A   Clear
4:51 PM 27.0 °F 20.5 °F 5.0 °F 39% 30.58 in 10.0 mi North 5.8 mph - N/A   Clear
5:51 PM 25.0 °F - 6.1 °F 45% 30.58 in 10.0 mi Calm Calm - N/A   Clear
6:51 PM 24.1 °F - 7.0 °F 48% 30.59 in 10.0 mi Calm Calm - N/A   Clear
7:51 PM 23.0 °F 18.4 °F 7.0 °F 50% 30.59 in 10.0 mi NNE 3.5 mph - N/A   Clear
8:51 PM 23.0 °F - 7.0 °F 50% 30.58 in 10.0 mi Calm Calm - N/A   Clear
9:51 PM 23.0 °F - 6.1 °F 48% 30.57 in 10.0 mi Calm Calm - N/A   Clear
10:51 PM 19.9 °F - 8.1 °F 60% 30.58 in 10.0 mi Calm Calm - N/A   Clear
11:51 PM 19.0 °F - 10.9 °F 71% 30.58 in 10.0 mi Calm Calm - N/A   Clear